| time (UTC) | temp C | wind direction | speed KPH | gust KPH | rain 1hr cm | rain 24hr cm | rain mn cm | humidity % | barometer mb |
| 20260505041429 | 3 | 157 | 0.0 | 0.0 | 0.03 | 0.97 | 0.97 | 94 | 1015.9 |
| 20260505035528 | 3 | 157 | 0.0 | 0.0 | 0.03 | 0.97 | 0.97 | 93 | 1015.8 |
| 20260505034528 | 3 | 180 | 1.6 | 3.2 | 0.03 | 0.97 | 0.97 | 94 | 1015.8 |
| 20260505033529 | 3 | 135 | 0.0 | 0.0 | 0.03 | 0.97 | 0.97 | 94 | 1015.8 |
| 20260505031527 | 3 | 135 | 0.0 | 0.0 | 0.00 | 0.94 | 0.94 | 93 | 1015.5 |
| 20260505030545 | 3 | 135 | 0.0 | 0.0 | 0.00 | 0.94 | 0.94 | 93 | 1015.4 |
| 20260505025530 | 3 | 135 | 0.0 | 0.0 | 0.00 | 0.94 | 0.94 | 94 | 1015.4 |
| 20260505024627 | 3 | 135 | 0.0 | 0.0 | 0.00 | 0.94 | 0.94 | 94 | 1015.4 |
| 20260505023630 | 3 | 135 | 0.0 | 0.0 | 0.00 | 0.94 | 0.94 | 93 | 1015.4 |
| 20260505022629 | 3 | 135 | 0.0 | 0.0 | 0.00 | 0.94 | 0.94 | 94 | 1015.4 |
| 20260505021630 | 3 | 135 | 0.0 | 0.0 | 0.00 | 0.94 | 0.94 | 94 | 1015.6 |
| 20260505020728 | 3 | 67 | 0.0 | 0.0 | 0.00 | 0.94 | 0.94 | 93 | 1015.8 |
| 20260505015728 | 3 | 67 | 0.0 | 0.0 | 0.00 | 0.94 | 0.94 | 93 | 1015.9 |
| 20260505014827 | 3 | 67 | 0.0 | 0.0 | 0.00 | 0.94 | 0.94 | 93 | 1016.0 |
| 20260505013828 | 4 | 45 | 0.0 | 0.0 | 0.03 | 0.94 | 0.94 | 93 | 1016.0 |
| 20260505012829 | 3 | 157 | 0.0 | 0.0 | 0.03 | 0.94 | 0.94 | 93 | 1016.1 |
| 20260505011829 | 3 | 157 | 0.0 | 0.0 | 0.03 | 0.94 | 0.94 | 94 | 1016.1 |
| 20260505010829 | 4 | 157 | 0.0 | 3.2 | 0.03 | 0.94 | 0.94 | 93 | 1016.1 |
| 20260505005928 | 4 | 180 | 0.0 | 0.0 | 0.03 | 0.94 | 0.94 | 94 | 1016.1 |
| 20260505004928 | 4 | 180 | 0.0 | 1.6 | 0.03 | 0.94 | 0.94 | 93 | 1016.2 |
| 20260505004830 | 4 | 194 | 1.6 | 4.8 | 0.03 | 0.94 | 0.94 | 93 | 1016.2 |
| 20260505003830 | 4 | 175 | 1.6 | 6.4 | 0.00 | 0.91 | 0.91 | 93 | 1016.0 |
| 20260505001927 | 5 | 180 | 0.0 | 0.0 | 0.00 | 0.91 | 0.91 | 93 | 1016.1 |
| 20260505000930 | 5 | 157 | 1.6 | 4.8 | 0.00 | 0.91 | 0.91 | 94 | 1016.2 |
| 20260504235928 | 5 | 157 | 0.0 | 0.0 | 0.00 | 0.91 | 0.91 | 94 | 1016.1 |
| 20260504234931 | 5 | 157 | 0.0 | 0.0 | 0.00 | 0.91 | 0.91 | 94 | 1016.2 |
| 20260504233927 | 5 | 157 | 0.0 | 0.0 | 0.00 | 0.91 | 0.91 | 93 | 1016.2 |
| 20260504232928 | 5 | 157 | 1.6 | 3.2 | 0.03 | 0.91 | 0.91 | 93 | 1016.2 |
| 20260504232027 | 5 | 157 | 0.0 | 0.0 | 0.03 | 0.91 | 0.91 | 93 | 1016.3 |
| 20260504231029 | 4 | 157 | 0.0 | 0.0 | 0.05 | 0.91 | 0.91 | 93 | 1016.4 |
| 20260504230027 | 4 | 157 | 0.0 | 0.0 | 0.10 | 0.91 | 0.91 | 92 | 1016.4 |
| 20260504225029 | 4 | 157 | 0.0 | 1.6 | 0.15 | 0.91 | 0.91 | 92 | 1016.6 |
| 20260504224030 | 4 | 180 | 0.0 | 1.6 | 0.20 | 0.91 | 0.91 | 92 | 1016.7 |
| 20260504223029 | 4 | 225 | 0.0 | 0.0 | 0.23 | 0.89 | 0.89 | 92 | 1016.6 |
| 20260504222128 | 5 | 135 | 0.0 | 0.0 | 0.25 | 0.89 | 0.89 | 93 | 1016.8 |
| 20260504220328 | 5 | 135 | 0.0 | 1.6 | 0.25 | 0.84 | 0.81 | 93 | 1016.7 |
| 20260504215329 | 5 | 135 | 0.0 | 0.0 | 0.20 | 0.76 | 0.76 | 93 | 1016.7 |
| 20260504214329 | 5 | 135 | 0.0 | 0.0 | 0.23 | 0.71 | 0.71 | 93 | 1016.8 |
| 20260504213427 | 5 | 135 | 0.0 | 0.0 | 0.20 | 0.69 | 0.69 | 93 | 1016.7 |
| 20260504212527 | 5 | 135 | 0.0 | 0.0 | 0.20 | 0.64 | 0.64 | 92 | 1016.7 |
| 20260504210527 | 5 | 135 | 0.0 | 1.6 | 0.20 | 0.61 | 0.61 | 93 | 1016.8 |
| 20260504205529 | 5 | 135 | 0.0 | 0.0 | 0.15 | 0.56 | 0.56 | 93 | 1016.5 |
| 20260504204628 | 5 | 135 | 0.0 | 0.0 | 0.13 | 0.53 | 0.53 | 91 | 1016.7 |
| 20260504203628 | 5 | 135 | 0.0 | 0.0 | 0.08 | 0.48 | 0.48 | 92 | 1016.6 |
| 20260504202627 | 5 | 112 | 0.0 | 0.0 | 0.03 | 0.43 | 0.43 | 92 | 1016.6 |
| 20260504201628 | 5 | 360 | 0.0 | 0.0 | 0.00 | 0.41 | 0.41 | 92 | 1016.5 |
| 20260504200629 | 5 | 360 | 0.0 | 0.0 | 0.00 | 0.41 | 0.41 | 92 | 1016.4 |
| 20260504195627 | 5 | 112 | 0.0 | 0.0 | 0.00 | 0.41 | 0.41 | 92 | 1016.7 |
| 20260504194727 | 5 | 180 | 0.0 | 0.0 | 0.00 | 0.41 | 0.41 | 92 | 1016.6 |
| 20260504193729 | 5 | 180 | 0.0 | 0.0 | 0.00 | 0.41 | 0.41 | 92 | 1016.7 |
| 20260504191829 | 6 | 135 | 0.0 | 3.2 | 0.00 | 0.41 | 0.41 | 92 | 1016.4 |
| 20260504190928 | 6 | 138 | 0.0 | 1.6 | 0.00 | 0.41 | 0.41 | 91 | 1016.4 |
| 20260504185929 | 6 | 198 | 1.6 | 4.8 | 0.00 | 0.41 | 0.41 | 91 | 1016.4 |
| 20260504184928 | 6 | 157 | 0.0 | 0.0 | 0.00 | 0.41 | 0.41 | 91 | 1016.6 |
| 20260504182929 | 6 | 157 | 0.0 | 1.6 | 0.00 | 0.41 | 0.41 | 91 | 1016.7 |
| 20260504181028 | 6 | 135 | 0.0 | 1.6 | 0.00 | 0.41 | 0.41 | 91 | 1016.7 |
| 20260504180127 | 6 | 135 | 0.0 | 0.0 | 0.00 | 0.41 | 0.41 | 91 | 1016.6 |
| 20260504175128 | 6 | 135 | 0.0 | 0.0 | 0.00 | 0.41 | 0.41 | 91 | 1016.9 |
| 20260504174128 | 6 | 135 | 0.0 | 0.0 | 0.00 | 0.41 | 0.41 | 92 | 1016.6 |
| 20260504173227 | 6 | 157 | 0.0 | 0.0 | 0.03 | 0.41 | 0.41 | 92 | 1016.2 |
| 20260504172230 | 6 | 157 | 0.0 | 0.0 | 0.03 | 0.41 | 0.41 | 92 | 1016.2 |
| 20260504171328 | 6 | 135 | 0.0 | 0.0 | 0.03 | 0.41 | 0.41 | 91 | 1016.2 |
| 20260504160227 | 5 | 135 | 0.0 | 0.0 | 0.28 | 0.38 | 0.38 | 93 | 1016.0 |
| 20260504150228 | 5 | 135 | 0.0 | 0.0 | 0.10 | 0.10 | 0.10 | 92 | 1016.2 |
| 20260504140327 | 5 | 157 | 0.0 | 0.0 | 0.00 | 0.00 | 0.00 | 92 | 1015.8 |
| 20260504130327 | 6 | 135 | 0.0 | 0.0 | 0.00 | 0.00 | 0.00 | 90 | 1015.4 |
| 20260504110429 | 6 | 135 | 0.0 | 0.0 | 0.00 | 0.00 | 0.00 | 91 | 1015.5 |
| 20260504081027 | 6 | 135 | 0.0 | 0.0 | 0.00 | 0.00 | 0.00 | 91 | 1016.3 |
| 20260504070128 | 7 | 135 | 0.0 | 0.0 | 0.00 | 0.00 | 0.00 | 90 | 1016.5 |
| 20260504060225 | 7 | 131 | 0.0 | 3.2 | 0.00 | 0.00 | 0.00 | 89 | 1016.2 |
| 20260504050326 | 8 | 45 | 0.0 | 0.0 | 0.00 | 0.00 | 0.00 | 86 | 1016.4 |